User: anonymous   Login
Location: La Brionne
(46.1728°N, 1.7849°E)
Time: 02:15:41
(UTC+00:00)
Language:

Cosmos 1461 - Orbit

View from above orbital plane
View from above orbital plane
View from above satellite
View from above satellite

Ground track
Ground track

The orbit data is extracted from the following two-line orbital elements,

1 14064U 83044A   21269.33080113  .00000931  00000-0  92164-4 0  9992
2 14064  64.9997 124.9928 0090665 155.7652 204.7771 14.95352039956732
Epoch (UTC): 26 September 2021 07:56:21
Eccentricity: 0.0090665
inclination: 64.9997°
perigee height: 518 km
apogee height: 644 km
right ascension of ascending node: 124.9928°
argument of perigee: 155.7652°
revolutions per day: 14.95352039
mean anomaly at epoch: 204.7771°
orbit number at epoch: 95673

The dashed part of the orbit path shows where the satellite is in the earth's shadow,  

DLR